Westerly, RI

11:44 AM EST on February 13, 2016 (GMT -0500)
Westerly State

Weather History for KWST - January, 2013

Change the Weather History Date:

Friday, January 25, 2013

  Actual Average (KGON) Record (KGON)
Temperature  
Mean Temperature 17 °F -  
Max Temperature 24 °F 40 °F 53 °F (1978)
Min Temperature 10 °F 23 °F 0 °F (1963)
Degree Days  
Heating Degree Days 48    
Moisture  
Dew Point 3 °F    
Average Humidity 57    
Maximum Humidity 93    
Minimum Humidity 29    
Precipitation  
Precipitation 0.00 in - - ()
Sea Level Pressure  
Sea Level Pressure 30.20 in    
Wind  
Wind Speed 6 mph (NW)    
Max Wind Speed 12 mph    
Max Gust Speed 22 mph    
Visibility 7 miles    
Events Snow    
Averages and records for this station are not official NWS values.
T = Trace of Precipitation, MM = Missing Value Source: NWS Daily Summary

Daily Weather History Graph

Daily Weather History Graph

Search for Another Location

Airport or City:

Trip Planner

Search our weather history database for the weather conditions in past years. The results will help you decide how hot, cold, wet, or windy it might be!

Date:

Astronomy

Jan. 25, 2013 Rise Set
Actual Time 7:04 AM EST 4:55 PM EST
Civil Twilight 6:34 AM EST 5:24 PM EST
Nautical Twilight 6:01 AM EST 5:58 PM EST
Astronomical Twilight 5:28 AM EST 6:31 PM EST
Moon 3:49 PM EST (1/25) 5:42 AM EST (1/25)
Length of Visible Light 10h 49m
Length of Day
9h 50m
Waxing Gibbous, 98% of the Moon is Illuminated
Jan 25
Waxing Gibbous
Jan 26
Full
Feb 3
Last Quarter
Feb 10
New
Feb 17
First Quarter

Hourly Weather History & Observations

Time (EST) Temp. Windchill Dew Point Humidity Pressure Visibility Wind Dir Wind Speed Gust Speed Precip Events Conditions
12:53 AM 12.9 °F -0.9 °F -2.0 °F 51% 30.30 in 10.0 mi NW 11.5 mph 21.9 mph N/A   Clear
1:53 AM 12.9 °F 3.8 °F -2.9 °F 49% 30.32 in 10.0 mi NW 5.8 mph - N/A   Clear
2:53 AM 12.9 °F 2.6 °F -2.9 °F 49% 30.32 in 10.0 mi WNW 6.9 mph - N/A   Clear
3:53 AM 12.0 °F 4.1 °F -0.9 °F 56% 30.33 in 10.0 mi West 4.6 mph - N/A   Clear
4:53 AM 10.9 °F 2.9 °F -2.0 °F 56% 30.32 in 10.0 mi WNW 4.6 mph - N/A   Clear
5:53 AM 10.9 °F 1.4 °F -5.1 °F 49% 30.34 in 10.0 mi WNW 5.8 mph - N/A   Clear
6:53 AM 10.9 °F 4.7 °F -5.1 °F 49% 30.33 in 10.0 mi WNW 3.5 mph - N/A   Clear
7:53 AM 12.0 °F -0.4 °F -5.1 °F 46% 30.35 in 10.0 mi WNW 9.2 mph - N/A   Clear
8:53 AM 14.0 °F 1.2 °F -7.1 °F 39% 30.35 in 10.0 mi WNW 10.4 mph 18.4 mph N/A   Clear
9:53 AM 16.0 °F 5.3 °F -7.1 °F 36% 30.35 in 10.0 mi NW 8.1 mph - N/A   Clear
10:53 AM 19.0 °F 8.2 °F -6.0 °F 33% 30.33 in 10.0 mi NNW 9.2 mph - N/A   Clear
11:53 AM 21.0 °F 13.4 °F -5.1 °F 32% 30.31 in 10.0 mi Variable 5.8 mph - N/A   Clear
12:53 PM 21.9 °F 14.5 °F -5.1 °F 30% 30.26 in 10.0 mi NW 5.8 mph - N/A   Clear
1:53 PM 23.0 °F 18.4 °F -5.1 °F 29% 30.22 in 10.0 mi Variable 3.5 mph - N/A   Clear
2:53 PM 23.0 °F 17.0 °F -4.0 °F 31% 30.22 in 10.0 mi NW 4.6 mph - N/A   Clear
3:53 PM 24.1 °F 18.2 °F -2.9 °F 31% 30.20 in 10.0 mi West 4.6 mph - N/A   Scattered Clouds
4:53 PM 23.0 °F 17.0 °F -0.9 °F 35% 30.19 in 10.0 mi West 4.6 mph - N/A   Overcast
5:53 PM 21.9 °F 15.7 °F -2.0 °F 35% 30.17 in 10.0 mi NW 4.6 mph - N/A   Overcast
6:53 PM 21.9 °F - -2.9 °F 34% 30.16 in 10.0 mi Calm Calm - N/A   Overcast
7:53 PM 21.9 °F 17.2 °F -0.9 °F 37% 30.12 in 10.0 mi North 3.5 mph - N/A   Overcast
8:53 PM 21.0 °F 13.4 °F 5.0 °F 50% 30.12 in 7.0 mi NNW 5.8 mph - N/A   Overcast
9:00 PM 21.2 °F 14.9 °F 8.6 °F 58% 30.11 in 3.0 mi NNW 4.6 mph - 0.00 in Snow Light Snow
9:09 PM 19.4 °F - 12.2 °F 74% 30.11 in 2.0 mi Calm Calm - 0.00 in Snow Light Snow
9:16 PM 19.4 °F 14.3 °F 14.0 °F 80% 30.10 in 1.2 mi NW 3.5 mph - 0.00 in Snow Light Snow
9:41 PM 19.4 °F - 15.8 °F 86% 30.09 in 2.0 mi Calm Calm - 0.00 in Snow Light Snow
9:49 PM 19.4 °F 11.5 °F 15.8 °F 86% 30.09 in 1.5 mi NNW 5.8 mph - 0.00 in Snow Light Snow
9:53 PM 19.0 °F 12.3 °F 15.1 °F 85% 30.09 in 1.5 mi North 4.6 mph - 0.00 in Snow Light Snow
10:26 PM 19.4 °F 12.8 °F 17.6 °F 93% 30.07 in 2.5 mi North 4.6 mph - 0.00 in Snow Light Snow
10:43 PM 19.4 °F 11.5 °F 17.6 °F 93% 30.06 in 1.5 mi North 5.8 mph - 0.00 in Snow Light Snow
10:53 PM 19.0 °F 12.3 °F 17.1 °F 92% 30.07 in 1.8 mi North 4.6 mph - 0.00 in Snow Light Snow
11:04 PM 19.4 °F 12.8 °F 17.6 °F 93% 30.06 in 2.5 mi North 4.6 mph - 0.00 in Snow Light Snow
11:14 PM 19.4 °F 12.8 °F 17.6 °F 93% 30.05 in 4.0 mi North 4.6 mph - 0.00 in Snow Light Snow
11:53 PM 19.0 °F 10.0 °F 16.0 °F 88% 30.05 in 7.0 mi North 6.9 mph - 0.00 in   Overcast